Tracking 18840 objects as of 19-November-2017
HD Live streaming from Space Station
objects crossing your sky now

GLOBALSTAR M090

Track GLOBALSTAR M090 now!
10-day predictions
GLOBALSTAR M090 is classified as:


NORAD ID: 38044
Int'l Code: 2011-080E
Perigee: 1,420.0 km
Apogee: 1,421.5 km
Inclination: 52.0 °
Period: 114.1 minutes
Semi major axis: 7791 km
RCS: 4.6821 m2 (large)
Launch date: December 28, 2011
Source: Globalstar (GLOB)
Launch site: TYURATAM MISSILE AND SPACE COMPLEX (TTMTR)
aabbcc
Your satellite tracking list
Your tracking list is empty




NASA's NSSDC Master Catalog

Two Line Element Set (TLE):
1 38044U 11080E   17322.84931896 -.00000108  00000-0 -23221-4 0  9997
2 38044  51.9867 146.4712 0000938 116.7004 348.0887 12.62263086274176
Source of the keplerian elements: AFSPC